#timestamp,LO_Frequency,Hit,StdDev 
1543165215.4,286046996.4,N
1543165235.2,286046997.5,N
1543165255.0,286046999.0,N
1543165255.9,286046999.0,N
1543165275.8,286046994.9,N
1543165295.6,286046995.8,N
1543165315.5,286046994.9,N
1543165335.3,286046996.8,N
1543165355.1,286046995.5,N
1543165375.9,286046995.7,N
1543165395.7,286046995.7,N
1543165415.6,286046996.3,N
1543165435.4,286046994.1,N
1543165455.2,286046993.9,N
1543165475.1,286046994.2,N
1543165476.0,286046994.2,N
1543165495.8,286046992.1,Y
1543165515.6,286046997.3,P
1543165535.5,286046997.1,N
1543165555.3,286046995.6,P
1543165575.2,286046996.4,Y
1543165595.9,286046994.9,P
1543165615.7,286046997.5,P
1543165635.6,286046994.9,P
1543165655.4,286046998.0,N
1543165675.3,286046996.2,N
1543165695.1,286046994.2,Y
1543165696.0,286046994.2,P
1543165715.8,286046998.2,N
1543165735.7,286047002.4,N
1543165755.5,286047000.9,N
1543165775.3,286047001.0,N
1543165795.2,286046999.0,N
1543165815.0,286046996.0,N
1543165815.9,286046996.0,N
1543165835.8,286046999.4,N
1543165855.6,286046996.5,N
1543165875.4,286046998.3,N
1543165895.3,286046998.6,N
1543165915.1,286046995.3,N
1543165935.8,286046995.3,N
1543165955.7,286046993.3,N
1543165975.5,286046992.4,Y
1543165995.4,286046994.1,P
1543166015.2,286046994.2,P
1543166035.0,286046991.8,P
1543166035.9,286046991.8,Y
1543166055.8,286046998.7,P
1543166075.6,286046998.7,N
1543166095.4,286046999.4,N
1543166115.3,286046997.1,N
1543166135.1,286046997.6,N
1543166155.9,286046995.4,N
1543166175.7,286046995.1,N
1543166195.5,286046995.9,N
1543166215.4,286046994.4,Y
1543166235.2,286046996.8,P
1543166255.0,286046998.4,P
1543166256.0,286046998.4,N
1543166275.8,286047000.1,N
1543166295.6,286047000.1,N
1543166315.5,286047002.5,N
1543166335.3,286047002.8,N
1543166355.1,286047002.3,N
1543166375.9,286046999.9,N
1543166395.7,286047000.8,N
1543166415.5,286047002.5,N
1543166435.4,286047002.0,N
1543166455.2,286047002.1,N
1543166475.1,286047005.4,N
1543166476.0,286047005.4,N
1543166495.8,286047004.9,N
1543166515.6,286047003.0,N
1543166535.5,286047003.4,N
1543166555.3,286047001.9,N
1543166575.1,286047003.2,N
1543166595.9,286047005.6,N
1543166615.7,286047003.0,N
1543166635.6,286047003.6,N
1543166655.4,286047002.9,N
1543166675.2,286047007.1,N
1543166695.1,286047007.2,N
1543166696.0,286047007.2,N
1543166715.8,286047007.5,N
1543166735.7,286047005.0,N
1543166755.5,286047008.6,N
1543166775.3,286047006.7,N
1543166795.2,286047007.0,N
1543166815.9,286047006.9,N
1543166835.7,286047006.8,N
1543166855.6,286047006.9,N
1543166875.4,286047004.9,N
1543166895.2,286047003.2,N
1543166915.1,286047001.5,N
1543166916.0,286047001.5,N
1543166935.8,286047004.0,N
1543166955.7,286047001.4,N
1543166975.5,286047004.0,N
1543166995.3,286047005.6,N
1543167015.2,286047001.8,N
1543167035.0,286047003.4,N
1543167035.9,286047003.4,N
1543167055.7,286047002.9,N
1543167075.6,286047005.0,N
1543167095.4,286047003.6,N
1543167115.3,286047003.2,N
1543167135.1,286047005.9,N
1543167136.0,286047005.9,N
1543167155.8,286047003.0,N
1543167175.7,286047003.6,N
1543167195.5,286047003.8,N
1543167215.3,286047004.0,N
1543167235.2,286047001.3,N
1543167255.0,286047001.6,N
1543167255.9,286047001.6,N
1543167275.8,286047003.6,N
1543167295.6,286047003.5,N
1543167315.4,286047003.6,N
1543167335.3,286047003.2,N
1543167355.1,286047006.0,Y
1543167375.9,286047002.5,P
1543167395.7,286047002.6,P
1543167415.5,286047001.7,P
1543167435.4,286047001.9,N
1543167455.2,286047001.5,N
1543167475.0,286047004.4,Y
1543167475.9,286047004.4,P
1543167495.8,286047000.5,N
1543167515.6,286047001.7,N
1543167535.5,286047001.6,N
1543167555.3,286047000.5,N
1543167575.1,286047002.4,N
1543167595.9,286046999.7,N
1543167615.7,286047000.5,N
1543167635.6,286047000.7,N
1543167655.4,286046998.5,N
1543167675.2,286046999.0,N
1543167695.1,286046998.5,N
1543167696.0,286046998.5,N
1543167715.8,286046999.2,N
1543167735.6,286047000.8,N
1543167755.5,286046998.4,N
1543167775.3,286046998.3,N
1543167795.2,286046998.4,N
1543167815.9,286046999.5,N
1543167835.7,286046997.1,N
1543167855.6,286046996.1,N
1543167875.4,286046995.9,N
1543167895.2,286046996.3,N
1543167915.1,286046996.5,N
1543167916.0,286046996.5,N
1543167935.8,286046997.2,N
1543167955.7,286046998.2,N
1543167975.5,286047002.5,N
1543167995.3,286047004.3,N
1543168015.2,286047004.1,N
1543168035.0,286047004.0,N
1543168035.9,286047004.0,N
1543168055.8,286047000.0,N
1543168075.6,286047000.7,N
1543168095.4,286046996.8,N
1543168115.3,286046997.3,N
1543168135.1,286046993.4,N
1543168155.8,286046993.9,N
1543168175.7,286046995.5,N
1543168195.5,286046996.4,N
1543168215.4,286046997.7,N
1543168235.2,286046999.5,N
1543168255.0,286046999.2,N
1543168255.9,286046999.2,N
1543168275.8,286047000.7,N
1543168295.6,286047000.3,N
1543168315.4,286046998.7,N
1543168335.3,286046997.6,N
1543168355.1,286046993.5,N
1543168375.9,286046994.7,N
1543168395.7,286046995.1,N
1543168415.5,286046997.3,N
1543168435.4,286046997.8,N
1543168455.2,286046996.6,N
1543168475.0,286046996.5,N
1543168475.9,286046996.5,N
1543168495.8,286047000.6,N
1543168515.6,286047000.9,N
1543168535.4,286047000.6,N
1543168555.3,286046999.8,N
1543168575.1,286047000.5,N
1543168595.9,286047000.9,N
1543168615.7,286047001.3,N
1543168635.5,286047004.0,N
1543168655.4,286047001.8,N
1543168675.2,286047003.9,N
1543168695.0,286047002.5,N
1543168695.9,286047002.5,N
1543168715.8,286047000.8,N
1543168735.6,286047000.8,N
1543168755.5,286047002.1,N
1543168775.3,286047002.7,N
1543168795.1,286047003.7,N
